Regional Weather Roundup
Issued by NWS

Home | Current Version | Previous Version | Graphics & Text | Print | Product List | Glossary On
Versions: 1 2 3 4 5 6 7 8 9 10 11 12 13 14 15 16 17 18 19 20 21 22 23 24 25 26 27 28 29 30 31 32 33 34 35 36 37 38 39 40 41 42 43 44 45 46 47 48 49 50
000
ASUS43 KMPX 290110
RWRMN
WEATHER ROUNDUP FOR MINNESOTA
NATIONAL WEATHER SERVICE TWIN CITIES/CHANHASSEN MN
800 PM CDT TUE JUL 28 2015


NOTE: "FAIR" INDICATES FEW OR NO CLOUDS BELOW 12,000 FEET WITH NO
SIGNIFICANT WEATHER AND/OR OBSTRUCTIONS TO VISIBILITY. N/A MEANS
CURRENT SKY AND/OR WEATHER CONDITIONS ARE NOT AVAILABLE.

MNZ060>063-068>070-290200-
   Twin Cities Metro

CITY           SKY/WX    TMP DP  RH WIND       PRES   REMARKS
TWIN CITIES    MOCLDY    82  70  66 W12G20    29.84R
ST PAUL        CLOUDY    81  73  76 SW8       29.83R
CRYSTAL        CLOUDY    82  69  64 W9        29.82R
BLAINE         PTCLDY    84  72  65 W12       29.83R
LAKEVILLE      CLOUDY    77  72  83 W7        29.86R
EDEN PRAIRIE   CLOUDY    81  71  71 SW8       29.84R
SOUTH ST PAUL  CLOUDY    81  71  71 SW8       29.84R
LAKE ELMO      CLOUDY    81  72  74 SW12      29.85R
$$
MNZ001>005-007-008-013>017-022>024-027-028-290200-
   Northwest Minnesota

CITY           SKY/WX    TMP DP  RH WIND       PRES   REMARKS
BEMIDJI        MOCLDY    72  55  54 SW13G20   29.74S
HALLOCK        CLOUDY    72  55  56 SW17      29.53F
ROSEAU         CLOUDY    72  57  60 S18       29.59F
WARROAD        CLOUDY    72  59  64 S10G21    29.60F
THIEF RVR FALL CLOUDY    72  55  56 SW15G24   29.64F
CROOKSTON      MOCLDY    72  55  56 SW23      29.66S
FOSSTON        CLEAR     72  57  60 SW17G23   29.71F
DETROIT LAKES  CLEAR     73  52  46 SW17G23   29.79R
MOORHEAD       PTCLDY    73  52  46 SW21G32   29.76R
PARK RAPIDS    PTCLDY    74  54  49 SW16      29.78S
MAHNOMEN       FAIR      71  53  52 SW14G23   29.74R
$$
MNZ006-009>011-018-025>026-290200-
   North Central Minnesota

CITY           SKY/WX    TMP DP  RH WIND       PRES   REMARKS
BAUDETTE       MOCLDY    73  54  51 SW12G24   29.65S
FLAG ISLAND    MOCLDY    73  57  56 S20G30    29.58R
INTL FALLS     CLEAR     75  60  59 W13G18    29.67R
WASKISH        CLEAR     73  55  53 SW17G30   29.70S
BIG FORK       PTCLDY    75  57  53 SW13      29.73R
LONGVILLE      MOCLDY    73  57  56 SW9       29.78S
GRAND RAPIDS   PTCLDY    75  57  53 SW10G24   29.77R
CRANE LAKE     PTCLDY    77  66  69 S5G17     29.70R
ORR            MOCLDY    75  64  69 CALM      29.68S
COOK           PTCLDY    77  66  69 S7G17     29.72S
WALKER         MOCLDY    72  55  55 SW10G18   29.77R
$$
MNZ012-019>021-037-290200-
   Northeast Minnesota

CITY           SKY/WX    TMP DP  RH WIND       PRES   REMARKS
DULUTH         MOCLDY    79  68  69 S15       29.78S
ELY            CLOUDY    79  64  61 S8        29.73F
HIBBING        MOCLDY    78  66  66 VRB7G24   29.74S
EVELETH        PTCLDY    77  66  69 S9G17     29.76S
DULUTH HARBOR  CLOUDY    82  72  69 S13       29.75S
TWO HARBORS    CLOUDY    79  70  73 S7        29.75S
SILVER BAY     CLOUDY    77  66  69 S5        29.75S
GRAND MARAIS     N/A     63  58  83 NE3       29.76S
G MARAIS ARPRT CLEAR     70  63  78 S3        29.82S
$$
MNZ029>031-032-039>041-046>048-054>057-064-290200-
   West Central Minnesota

CITY           SKY/WX    TMP DP  RH WIND       PRES   REMARKS
FERGUS FALLS   CLEAR     73  52  46 W23G30    29.80R
WHEATON        CLEAR     73  52  46 W13G24    29.87R
MORRIS         CLEAR     75  59  57 W8        29.85R
ALEXANDRIA     CLEAR     74  57  55 W13       29.86S
ELBOW LAKE     MOCLDY    73  56  54 W10       29.84R
WADENA         CLEAR     73  55  53 SW7G16    29.81R
GLENWOOD       CLEAR     75  57  53 SW13G18   29.87R
APPLETON       CLEAR     75  57  53 W9        29.87R
BENSON         CLEAR     75  57  53 W7        29.87R
ORTONVILLE     CLEAR     77  54  44 W9        29.87R
MADISON        CLEAR     75  57  53 W6        29.88R
WILLMAR        FAIR      75  64  69 W7        29.89R
$$
MNZ033>034-036-042>043-049>051-058-059-290200-
   Central Minnesota

CITY           SKY/WX    TMP DP  RH WIND       PRES   REMARKS
ST CLOUD       CLEAR     77  59  53 W14G22    29.85R
SAUK CENTRE    FAIR      73  57  57 W10       29.86R
PAYNESVILLE    CLEAR     72  58  61 SW10      29.88R
AITKIN         CLEAR     77  61  57 SW10G18   29.79R
PINE RIVER     CLEAR     73  59  60 SW6       29.83R
BRAINERD       CLEAR     75  57  53 W15G26    29.81R
STAPLES        CLEAR     73  55  53 SW12      29.82R
LONG PRAIRIE   FAIR      73  55  53 SW10      29.85R
LITTLE FALLS   CLEAR     73  55  53 SW8       29.84R
LITCHFIELD     CLEAR     77  61  57 W6        29.89R
BUFFALO        PTCLDY    78  62  56 W8G16     29.86R
MAPLE LAKE     PTCLDY    79  61  53 W7G18     29.86R
$$
MNZ037-044-045-052-053-290200-
   East Central Minnesota

CITY           SKY/WX    TMP DP  RH WIND       PRES   REMARKS
PRINCETON      CLEAR     79  61  53 W10       29.83R
MORA           PTCLDY    77  68  73 SW7       29.82R
CAMBRIDGE      PTCLDY    81  70  69 SW7       29.80R
RUSH CITY      LGT RAIN  78  71  79 S8        29.81R
MOOSE LAKE     CLOUDY    77  68  73 SW8       29.77S
HINCKLEY       CLOUDY    77  72  83 SW7       29.80R
CLOQUET        CLOUDY    75  68  78 SW7       29.78S
MCGREGOR       CLOUDY    77  64  65 SW7       29.79R
$$
MNZ071>073-080-081-089-090-097-098-290200-
   Southwest Minnesota

CITY           SKY/WX    TMP DP  RH WIND       PRES   REMARKS
MONTEVIDEO     CLEAR     75  61  60 W5        29.90R
GRANITE FALLS  CLEAR     74  62  65 CALM      29.91R
CANBY          CLEAR     76  54  46 W8        29.91R
MARSHALL       CLEAR     75  57  53 W7        29.92R
REDWOOD FALLS  CLEAR     77  60  55 W9        29.89R
OLIVIA         CLEAR     72  59  64 W7        29.89R
PIPESTONE      CLEAR     73  57  56 W6        29.95R
WINDOM         CLEAR     73  61  64 W8        29.94R
WORTHINGTON    CLEAR     73  61  64 W6        29.95R
JACKSON        CLEAR     73  61  64 W9        29.94R
TRACY          CLEAR     75  63  64 W5        29.93R
SLAYTON        CLEAR     77  58  51 CALM      29.96R
$$
MNZ065>067-074>077-082>085-091>093-290200-
   South Central Minnesota

CITY           SKY/WX    TMP DP  RH WIND       PRES   REMARKS
MANKATO        MOCLDY    79  63  57 W10       29.89R
NEW ULM        CLEAR     75  63  64 W7        29.90R
ST JAMES       CLEAR     79  64  61 W7        29.92R
FAIRMONT       PTCLDY    79  59  50 W7        29.90F
GLENCOE        CLEAR     77  66  68 W5        29.87R
FARIBAULT      CLOUDY    79  73  83 SW5       29.88S
OWATONNA       MOCLDY    77  72  83 SW8       29.88F
WASECA         CLOUDY    77  72  83 W7        29.90F
ALBERT LEA     CLOUDY    77  72  83 W6        29.89F
$$
MNZ078>079-086>088-094>096-290200-
   Southeast Minnesota

CITY           SKY/WX    TMP DP  RH WIND       PRES   REMARKS
ROCHESTER      CLOUDY    77  71  82 SW12      29.90S
RED WING       CLOUDY    81  72  74 W13       29.84R
STANTON        CLOUDY    78  73  83 SW6       29.85S
DODGE CENTER   CLOUDY    75  72  88 SW8       29.89F
WINONA         PTCLDY    81  70  69 CALM      29.87S
AUSTIN         CLOUDY    79  72  78 SW8       29.89F
PRESTON        MOCLDY    76  70  80 S5        29.91S
$$
ABBREVIATIONS USED IN REMARKS
   TC - TEMPERATURES IN CELSIUS
  WCI - WIND CHILL INDEX
   HX - HEAT INDEX
  VSB - VISIBILITY
$$


USA.gov is the U.S. government's official web portal to all federal, state and local government web resources and services.